Time,TemperatureF,DewpointF,PressureIn,WindDirection,WindDirectionDegrees,WindSpeedMPH,WindSpeedGustMPH,Humidity,HourlyPrecipIn,Conditions,Clouds,dailyrainin,SoftwareType,DateUTC
2013-09-07 00:02:00,76.1,43.3,29.73,WSW,244,6.0,6.0,31,0.00,OVC,,0.00,WeatherDisplay:10.37,2013-09-07 07:02:00,
2013-09-07 00:07:00,76.3,43.4,29.73,SW,232,6.9,6.9,31,0.00,OVC,,0.00,WeatherDisplay:10.37,2013-09-07 07:07:00,
2013-09-07 00:12:00,76.3,43.4,29.73,SW,225,4.6,4.6,31,0.00,OVC,,0.00,WeatherDisplay:10.37,2013-09-07 07:12:00,
2013-09-07 00:17:00,75.5,42.7,29.73,SW,225,3.5,3.5,31,0.00,OVC,,0.00,WeatherDisplay:10.37,2013-09-07 07:17:00,
2013-09-07 00:22:00,74.9,43.0,29.73,SW,225,3.5,3.5,32,0.00,OVC,,0.00,WeatherDisplay:10.37,2013-09-07 07:22:00,
2013-09-07 00:27:00,74.5,42.7,29.73,SSW,203,3.0,3.0,32,0.00,OVC,,0.00,WeatherDisplay:10.37,2013-09-07 07:27:00,
2013-09-07 00:32:00,74.3,42.5,29.73,SSW,196,3.5,3.5,32,0.00,OVC,,0.00,WeatherDisplay:10.37,2013-09-07 07:32:00,
2013-09-07 00:37:00,74.0,42.3,29.73,SSW,195,4.0,4.0,32,0.00,OVC,,0.00,WeatherDisplay:10.37,2013-09-07 07:37:00,
2013-09-07 00:42:00,73.7,42.0,29.73,SSW,196,4.6,4.6,32,0.00,OVC,,0.00,WeatherDisplay:10.37,2013-09-07 07:42:00,
2013-09-07 00:47:00,73.5,41.8,29.73,SW,217,5.0,5.0,32,0.00,OVC,,0.00,WeatherDisplay:10.37,2013-09-07 07:47:00,
2013-09-07 00:52:00,73.1,42.3,29.73,SW,218,4.6,4.9,33,0.00,OVC,,0.00,WeatherDisplay:10.37,2013-09-07 07:52:00,
2013-09-07 00:57:00,73.3,42.4,29.73,SW,218,5.8,5.8,33,0.00,OVC,,0.00,WeatherDisplay:10.37,2013-09-07 07:57:00,
2013-09-07 01:02:00,73.3,42.4,29.73,SW,225,6.9,6.9,33,0.00,OVC,,0.00,WeatherDisplay:10.37,2013-09-07 08:02:00,
2013-09-07 01:07:00,72.7,41.9,29.72,SW,232,8.1,8.1,33,0.00,OVC,,0.00,WeatherDisplay:10.37,2013-09-07 08:07:00,
2013-09-07 01:12:00,71.7,41.0,29.72,SW,217,6.9,6.9,33,0.00,OVC,,0.00,WeatherDisplay:10.37,2013-09-07 08:12:00,
2013-09-07 01:17:00,70.2,40.5,29.72,SSW,210,6.0,6.1,34,0.00,OVC,,0.00,WeatherDisplay:10.37,2013-09-07 08:17:00,
2013-09-07 01:22:00,69.5,39.9,29.72,SW,217,5.8,5.8,34,0.00,OVC,,0.00,WeatherDisplay:10.37,2013-09-07 08:22:00,
2013-09-07 01:27:00,68.5,39.0,29.73,SSW,200,3.5,4.3,34,0.00,OVC,,0.00,WeatherDisplay:10.37,2013-09-07 08:27:00,
2013-09-07 01:32:00,68.1,39.4,29.73,South,189,5.8,5.8,35,0.00,OVC,,0.00,WeatherDisplay:10.37,2013-09-07 08:32:00,
2013-09-07 01:37:00,68.0,39.3,29.73,NNW,336,3.5,3.5,35,0.00,OVC,,0.00,WeatherDisplay:10.37,2013-09-07 08:37:00,
2013-09-07 01:42:00,67.8,39.1,29.73,NNW,336,0.0,0.0,35,0.00,OVC,,0.00,WeatherDisplay:10.37,2013-09-07 08:42:00,
2013-09-07 01:47:00,67.5,38.9,29.73,NNW,336,0.0,0.0,35,0.00,OVC,,0.00,WeatherDisplay:10.37,2013-09-07 08:47:00,
2013-09-07 01:52:00,67.2,39.3,29.73,NNW,336,2.3,2.3,36,0.00,OVC,,0.00,WeatherDisplay:10.37,2013-09-07 08:52:00,
2013-09-07 01:57:00,67.0,39.9,29.72,WSW,245,3.5,3.5,37,0.00,OVC,,0.00,WeatherDisplay:10.37,2013-09-07 08:57:00,
2013-09-07 02:02:00,67.2,40.0,29.72,WSW,245,2.3,2.3,37,0.00,OVC,,0.00,WeatherDisplay:10.37,2013-09-07 09:02:00,
2013-09-07 02:07:00,66.9,39.1,29.72,WSW,249,3.5,3.5,36,0.00,OVC,,0.00,WeatherDisplay:10.37,2013-09-07 09:07:00,
2013-09-07 02:12:00,66.7,39.6,29.72,SW,217,4.0,4.0,37,0.00,OVC,,0.00,WeatherDisplay:10.37,2013-09-07 09:12:00,
2013-09-07 02:17:00,66.3,38.5,29.72,SW,231,5.0,5.0,36,0.00,OVC,,0.00,WeatherDisplay:10.37,2013-09-07 09:17:00,
2013-09-07 02:22:00,66.0,39.0,29.72,SW,232,5.8,5.8,37,0.00,OVC,,0.00,WeatherDisplay:10.37,2013-09-07 09:22:00,
2013-09-07 02:27:00,65.8,38.8,29.72,SW,226,6.9,6.9,37,0.00,OVC,,0.00,WeatherDisplay:10.37,2013-09-07 09:27:00,
2013-09-07 02:32:00,65.9,38.9,29.72,SW,215,6.9,6.9,37,0.00,OVC,,0.00,WeatherDisplay:10.37,2013-09-07 09:32:00,
2013-09-07 02:37:00,65.9,39.6,29.72,SW,223,6.9,6.9,38,0.00,OVC,,0.00,WeatherDisplay:10.37,2013-09-07 09:37:00,
2013-09-07 02:42:00,66.0,39.0,29.72,SW,225,5.8,5.8,37,0.00,OVC,,0.00,WeatherDisplay:10.37,2013-09-07 09:42:00,
2013-09-07 02:47:00,66.2,39.1,29.72,SW,226,3.5,3.5,37,0.00,OVC,,0.00,WeatherDisplay:10.37,2013-09-07 09:47:00,
2013-09-07 02:52:00,65.9,38.2,29.72,South,171,3.0,3.0,36,0.00,OVC,,0.00,WeatherDisplay:10.37,2013-09-07 09:52:00,
2013-09-07 02:57:00,65.4,39.8,29.72,SSE,149,3.5,3.5,39,0.00,OVC,,0.00,WeatherDisplay:10.37,2013-09-07 09:57:00,
2013-09-07 03:02:00,65.5,40.5,29.72,SSE,159,6.0,6.0,40,0.00,OVC,,0.00,WeatherDisplay:10.37,2013-09-07 10:02:00,
2013-09-07 03:07:00,66.5,40.1,29.72,South,181,6.9,6.9,38,0.00,OVC,,0.00,WeatherDisplay:10.37,2013-09-07 10:07:00,
2013-09-07 03:12:00,67.3,40.1,29.72,South,180,5.8,5.8,37,0.00,OVC,,0.00,WeatherDisplay:10.37,2013-09-07 10:12:00,
2013-09-07 03:17:00,66.9,39.1,29.72,South,180,3.5,3.5,36,0.00,OVC,,0.00,WeatherDisplay:10.37,2013-09-07 10:17:00,
2013-09-07 03:22:00,66.0,39.0,29.72,South,180,0.0,0.0,37,0.00,OVC,,0.00,WeatherDisplay:10.37,2013-09-07 10:22:00,
2013-09-07 03:27:00,65.5,38.5,29.72,South,180,0.0,0.0,37,0.00,OVC,,0.00,WeatherDisplay:10.37,2013-09-07 10:27:00,
2013-09-07 03:32:00,65.5,38.5,29.72,South,180,1.1,1.1,37,0.00,OVC,,0.00,WeatherDisplay:10.37,2013-09-07 10:32:00,
2013-09-07 03:37:00,65.3,39.0,29.72,South,180,2.3,2.3,38,0.00,OVC,,0.00,WeatherDisplay:10.37,2013-09-07 10:37:00,
2013-09-07 03:42:00,65.3,39.0,29.72,South,180,2.3,2.3,38,0.00,OVC,,0.00,WeatherDisplay:10.37,2013-09-07 10:42:00,
2013-09-07 03:47:00,65.7,39.4,29.72,South,180,3.5,3.5,38,0.00,OVC,,0.00,WeatherDisplay:10.37,2013-09-07 10:47:00,
2013-09-07 03:52:00,65.6,39.3,29.72,South,180,3.5,3.5,38,0.00,OVC,,0.00,WeatherDisplay:10.37,2013-09-07 10:52:00,
2013-09-07 03:57:00,65.2,38.3,29.72,South,180,5.0,5.0,37,0.00,OVC,,0.00,WeatherDisplay:10.37,2013-09-07 10:57:00,
2013-09-07 04:02:00,65.1,38.8,29.72,South,184,5.0,5.0,38,0.00,OVC,,0.00,WeatherDisplay:10.37,2013-09-07 11:02:00,
2013-09-07 04:07:00,64.3,38.1,29.72,SW,229,4.6,4.6,38,0.00,OVC,,0.00,WeatherDisplay:10.37,2013-09-07 11:07:00,
2013-09-07 04:12:00,64.5,38.3,29.72,West,267,5.0,5.0,38,0.00,CLR,,0.00,WeatherDisplay:10.37,2013-09-07 11:12:00,
2013-09-07 04:17:00,64.3,38.8,29.73,WNW,292,4.6,4.6,39,0.00,OVC,,0.00,WeatherDisplay:10.37,2013-09-07 11:17:00,
2013-09-07 04:22:00,65.0,40.1,29.73,WNW,286,5.8,5.8,40,0.00,OVC,,0.00,WeatherDisplay:10.37,2013-09-07 11:22:00,
2013-09-07 04:27:00,66.4,40.0,29.72,NW,315,5.8,5.8,38,0.00,OVC,,0.00,WeatherDisplay:10.37,2013-09-07 11:27:00,
2013-09-07 04:32:00,66.0,39.0,29.72,North,351,3.5,3.5,37,0.00,OVC,,0.00,WeatherDisplay:10.37,2013-09-07 11:32:00,
2013-09-07 04:37:00,65.4,38.4,29.72,North,355,1.1,1.1,37,0.00,OVC,,0.00,WeatherDisplay:10.37,2013-09-07 11:37:00,
2013-09-07 04:42:00,64.9,38.7,29.72,North,351,0.0,0.0,38,0.00,OVC,,0.00,WeatherDisplay:10.37,2013-09-07 11:42:00,
2013-09-07 04:47:00,64.7,38.5,29.72,WNW,302,0.0,0.0,38,0.00,OVC,,0.00,WeatherDisplay:10.37,2013-09-07 11:47:00,
2013-09-07 04:52:00,64.8,38.6,29.72,WNW,302,0.0,0.0,38,0.00,OVC,,0.00,WeatherDisplay:10.37,2013-09-07 11:52:00,
2013-09-07 04:57:00,65.1,39.5,29.72,WNW,302,1.1,0.0,39,0.00,OVC,,0.00,WeatherDisplay:10.37,2013-09-07 11:57:00,
2013-09-07 05:02:00,65.3,39.7,29.72,WNW,302,0.0,0.0,39,0.00,OVC,,0.00,WeatherDisplay:10.37,2013-09-07 12:02:00,
2013-09-07 05:07:00,65.5,40.5,29.73,WNW,302,0.0,0.0,40,0.00,OVC,,0.00,WeatherDisplay:10.37,2013-09-07 12:07:00,
2013-09-07 05:12:00,65.5,38.5,29.73,WNW,302,2.0,2.0,37,0.00,OVC,,0.00,WeatherDisplay:10.37,2013-09-07 12:12:00,
2013-09-07 05:17:00,65.4,39.8,29.72,WNW,302,0.0,0.0,39,0.00,OVC,,0.00,WeatherDisplay:10.37,2013-09-07 12:17:00,
2013-09-07 05:22:00,65.7,39.4,29.73,WNW,302,0.0,0.0,38,0.00,OVC,,0.00,WeatherDisplay:10.37,2013-09-07 12:22:00,
2013-09-07 05:27:00,65.3,39.7,29.73,WNW,291,3.5,3.5,39,0.00,OVC,,0.00,WeatherDisplay:10.37,2013-09-07 12:27:00,
2013-09-07 05:32:00,66.1,39.7,29.73,WNW,291,3.5,3.5,38,0.00,OVC,,0.00,WeatherDisplay:10.37,2013-09-07 12:32:00,
2013-09-07 05:37:00,66.9,40.5,29.73,WSW,252,3.5,3.8,38,0.00,OVC,,0.00,WeatherDisplay:10.37,2013-09-07 12:37:00,
2013-09-07 05:42:00,66.5,38.0,29.73,SW,229,7.0,7.0,35,0.00,OVC,,0.00,WeatherDisplay:10.37,2013-09-07 12:42:00,
2013-09-07 05:47:00,62.7,36.7,29.73,WSW,242,6.0,6.0,38,0.00,OVC,,0.00,WeatherDisplay:10.37,2013-09-07 12:47:00,
2013-09-07 05:52:00,61.8,37.8,29.73,WSW,242,4.6,4.7,41,0.00,OVC,,0.00,WeatherDisplay:10.37,2013-09-07 12:52:00,
2013-09-07 05:57:00,62.9,39.4,29.73,WSW,242,5.0,5.0,42,0.00,OVC,,0.00,WeatherDisplay:10.37,2013-09-07 12:57:00,
2013-09-07 06:02:00,63.1,40.2,29.73,SW,227,5.0,5.0,43,0.00,OVC,,0.00,WeatherDisplay:10.37,2013-09-07 13:02:00,
2013-09-07 06:07:00,62.7,37.4,29.73,SSW,200,5.8,5.8,39,0.00,OVC,,0.00,WeatherDisplay:10.37,2013-09-07 13:07:00,
2013-09-07 06:12:00,61.8,37.8,29.73,SSE,159,4.6,4.6,41,0.00,OVC,,0.00,WeatherDisplay:10.37,2013-09-07 13:12:00,
2013-09-07 06:17:00,62.5,38.5,29.73,South,191,8.1,8.1,41,0.00,OVC,,0.00,WeatherDisplay:10.37,2013-09-07 13:17:00,
2013-09-07 06:22:00,62.5,37.8,29.73,SSW,192,5.8,5.8,40,0.00,OVC,,0.00,WeatherDisplay:10.37,2013-09-07 13:22:00,
2013-09-07 06:27:00,62.0,37.4,29.73,South,181,5.0,5.0,40,0.00,OVC,,0.00,WeatherDisplay:10.37,2013-09-07 13:27:00,
2013-09-07 06:32:00,61.5,37.6,29.73,South,182,4.6,4.6,41,0.00,OVC,,0.00,WeatherDisplay:10.37,2013-09-07 13:32:00,
2013-09-07 06:37:00,61.1,37.2,29.74,SSW,203,5.0,5.0,41,0.00,CLR,,0.00,WeatherDisplay:10.37,2013-09-07 13:37:00,
2013-09-07 06:42:00,61.2,37.3,29.74,SSW,211,4.0,4.0,41,0.00,OVC,,0.00,WeatherDisplay:10.37,2013-09-07 13:42:00,
2013-09-07 06:47:00,61.5,37.6,29.74,SSW,211,0.0,0.0,41,0.00,OVC,,0.00,WeatherDisplay:10.37,2013-09-07 13:47:00,
2013-09-07 06:52:00,61.1,37.2,29.74,SSE,156,4.6,4.9,41,0.00,OVC,,0.00,WeatherDisplay:10.37,2013-09-07 13:52:00,
2013-09-07 06:57:00,61.6,37.7,29.75,SSE,157,3.5,3.5,41,0.00,OVC,,0.00,WeatherDisplay:10.37,2013-09-07 13:57:00,
2013-09-07 07:02:00,62.1,38.1,29.75,South,175,4.6,4.6,41,0.00,OVC,,0.00,WeatherDisplay:10.37,2013-09-07 14:02:00,
2013-09-07 07:07:00,62.2,37.6,29.75,South,175,4.0,4.0,40,0.00,OVC,,0.00,WeatherDisplay:10.37,2013-09-07 14:07:00,
2013-09-07 07:12:00,62.6,37.3,29.75,South,182,3.5,3.5,39,0.00,OVC,,0.00,WeatherDisplay:10.37,2013-09-07 14:12:00,
2013-09-07 07:17:00,63.1,37.7,29.75,WSW,238,3.5,3.5,39,0.00,OVC,,0.00,WeatherDisplay:10.37,2013-09-07 14:17:00,
2013-09-07 07:22:00,64.0,38.5,29.76,WSW,247,4.0,4.0,39,0.00,OVC,,0.00,WeatherDisplay:10.37,2013-09-07 14:22:00,
2013-09-07 07:27:00,65.4,37.7,29.75,SW,223,5.8,5.8,36,0.00,OVC,,0.00,WeatherDisplay:10.37,2013-09-07 14:27:00,
2013-09-07 07:32:00,66.7,37.4,29.76,SSW,207,6.0,6.0,34,0.00,OVC,,0.00,WeatherDisplay:10.37,2013-09-07 14:32:00,
2013-09-07 07:37:00,67.8,38.4,29.76,WSW,244,6.9,6.9,34,0.00,OVC,,0.00,WeatherDisplay:10.37,2013-09-07 14:37:00,
2013-09-07 07:42:00,68.5,39.8,29.76,West,267,4.6,4.6,35,0.00,OVC,,0.00,WeatherDisplay:10.37,2013-09-07 14:42:00,
2013-09-07 07:47:00,69.2,39.6,29.76,WSW,242,3.5,3.5,34,0.00,OVC,,0.00,WeatherDisplay:10.37,2013-09-07 14:47:00,
2013-09-07 07:52:00,70.3,40.6,29.76,SSW,204,4.0,4.0,34,0.00,OVC,,0.00,WeatherDisplay:10.37,2013-09-07 14:52:00,
2013-09-07 07:57:00,71.4,40.8,29.76,SSW,205,2.3,2.3,33,0.00,OVC,,0.00,WeatherDisplay:10.37,2013-09-07 14:57:00,
2013-09-07 08:02:00,72.2,40.7,29.76,SW,232,4.0,4.0,32,0.00,CLR,,0.00,WeatherDisplay:10.37,2013-09-07 15:02:00,
2013-09-07 08:07:00,73.0,40.6,29.76,WSW,246,5.8,5.8,31,0.00,CLR,,0.00,WeatherDisplay:10.37,2013-09-07 15:07:00,
2013-09-07 08:12:00,73.6,41.1,29.76,SW,229,3.5,3.5,31,0.00,OVC,,0.00,WeatherDisplay:10.37,2013-09-07 15:12:00,
2013-09-07 08:17:00,74.1,41.5,29.76,SW,229,1.0,0.0,31,0.00,OVC,,0.00,WeatherDisplay:10.37,2013-09-07 15:17:00,
2013-09-07 08:22:00,75.3,41.7,29.76,NNE,20,3.5,3.5,30,0.00,OVC,,0.00,WeatherDisplay:10.37,2013-09-07 15:22:00,
2013-09-07 08:27:00,76.7,42.0,29.76,NNE,23,3.5,3.5,29,0.00,OVC,,0.00,WeatherDisplay:10.37,2013-09-07 15:27:00,
2013-09-07 08:32:00,77.8,42.1,29.76,NNE,17,2.3,2.3,28,0.00,OVC,,0.00,WeatherDisplay:10.37,2013-09-07 15:32:00,
2013-09-07 08:37:00,78.9,42.1,29.76,NNE,17,2.3,2.3,27,0.00,OVC,,0.00,WeatherDisplay:10.37,2013-09-07 15:37:00,
2013-09-07 08:42:00,79.8,41.9,29.76,NNE,19,3.5,3.5,26,0.00,OVC,,0.00,WeatherDisplay:10.37,2013-09-07 15:42:00,
2013-09-07 08:47:00,80.3,42.3,29.76,NNE,17,3.0,3.0,26,0.00,OVC,,0.00,WeatherDisplay:10.37,2013-09-07 15:47:00,
2013-09-07 08:52:00,81.4,43.2,29.76,NNE,26,4.0,4.0,26,0.00,OVC,,0.00,WeatherDisplay:10.37,2013-09-07 15:52:00,
2013-09-07 08:57:00,82.3,44.0,29.76,NNE,19,3.5,3.5,26,0.00,OVC,,0.00,WeatherDisplay:10.37,2013-09-07 15:57:00,
2013-09-07 09:02:00,82.9,43.5,29.76,NNE,22,2.3,2.3,25,0.00,OVC,,0.00,WeatherDisplay:10.37,2013-09-07 16:02:00,
2013-09-07 09:07:00,83.6,43.0,29.76,NNE,24,3.5,3.5,24,0.00,OVC,,0.00,WeatherDisplay:10.37,2013-09-07 16:07:00,
2013-09-07 09:12:00,84.0,43.3,29.76,NNE,15,2.3,2.3,24,0.00,OVC,,0.00,WeatherDisplay:10.37,2013-09-07 16:12:00,
2013-09-07 09:17:00,84.7,42.8,29.76,NNE,33,2.3,2.3,23,0.00,OVC,,0.00,WeatherDisplay:10.37,2013-09-07 16:17:00,
2013-09-07 09:22:00,85.0,43.0,29.76,NE,39,2.3,2.3,23,0.00,OVC,,0.00,WeatherDisplay:10.37,2013-09-07 16:22:00,
2013-09-07 09:27:00,85.9,42.6,29.76,NE,38,1.1,1.1,22,0.00,OVC,,0.00,WeatherDisplay:10.37,2013-09-07 16:27:00,
2013-09-07 09:32:00,87.1,42.4,29.76,NNW,340,1.1,1.1,21,0.00,OVC,,0.00,WeatherDisplay:10.37,2013-09-07 16:32:00,
2013-09-07 09:37:00,87.6,41.6,29.76,NNW,340,2.3,2.3,20,0.00,OVC,,0.00,WeatherDisplay:10.37,2013-09-07 16:37:00,
2013-09-07 09:42:00,87.0,42.3,29.77,NW,318,2.3,2.3,21,0.00,OVC,,0.00,WeatherDisplay:10.37,2013-09-07 16:42:00,
2013-09-07 09:47:00,86.6,42.0,29.76,NW,319,2.3,2.3,21,0.00,OVC,,0.00,WeatherDisplay:10.37,2013-09-07 16:47:00,
2013-09-07 09:52:00,86.5,41.9,29.77,West,271,1.1,1.1,21,0.00,OVC,,0.00,WeatherDisplay:10.37,2013-09-07 16:52:00,
2013-09-07 09:57:00,87.6,42.8,29.77,NNW,344,1.1,1.1,21,0.00,OVC,,0.00,WeatherDisplay:10.37,2013-09-07 16:57:00,
2013-09-07 10:02:00,89.2,42.9,29.76,ESE,115,0.0,0.0,20,0.00,CLR,,0.00,WeatherDisplay:10.37,2013-09-07 17:02:00,
2013-09-07 10:07:00,89.0,41.4,29.76,SE,125,4.6,4.6,19,0.00,CLR,,0.00,WeatherDisplay:10.37,2013-09-07 17:07:00,
2013-09-07 10:12:00,89.0,41.4,29.76,East,82,1.1,0.0,19,0.00,CLR,,0.00,WeatherDisplay:10.37,2013-09-07 17:12:00,
2013-09-07 10:17:00,89.6,43.2,29.76,SSW,205,1.1,1.1,20,0.00,CLR,,0.00,WeatherDisplay:10.37,2013-09-07 17:17:00,
2013-09-07 10:22:00,90.5,41.2,29.76,ENE,72,8.1,8.1,18,0.00,CLR,,0.00,WeatherDisplay:10.37,2013-09-07 17:22:00,
2013-09-07 10:27:00,90.3,41.0,29.76,NE,34,6.9,6.9,18,0.00,CLR,,0.00,WeatherDisplay:10.37,2013-09-07 17:27:00,
2013-09-07 10:32:00,90.6,41.3,29.76,ENE,60,8.1,8.1,18,0.00,CLR,,0.00,WeatherDisplay:10.37,2013-09-07 17:32:00,
2013-09-07 10:37:00,90.8,41.4,29.76,East,98,8.1,8.1,18,0.00,CLR,,0.00,WeatherDisplay:10.37,2013-09-07 17:37:00,
2013-09-07 10:42:00,90.1,42.3,29.76,SE,127,6.9,6.9,19,0.00,CLR,,0.00,WeatherDisplay:10.37,2013-09-07 17:42:00,
2013-09-07 10:47:00,89.8,42.0,29.75,ENE,63,7.0,7.0,19,0.00,CLR,,0.00,WeatherDisplay:10.37,2013-09-07 17:47:00,
2013-09-07 10:52:00,90.4,42.5,29.75,East,97,8.0,8.0,19,0.00,CLR,,0.00,WeatherDisplay:10.37,2013-09-07 17:52:00,
2013-09-07 10:57:00,90.6,41.3,29.75,SE,145,8.1,8.1,18,0.00,CLR,,0.00,WeatherDisplay:10.37,2013-09-07 17:57:00,
2013-09-07 11:02:00,91.3,40.4,29.75,SE,131,10.4,10.4,17,0.00,CLR,,0.00,WeatherDisplay:10.37,2013-09-07 18:02:00,
2013-09-07 11:07:00,91.8,39.2,29.75,ESE,106,9.2,9.2,16,0.00,CLR,,0.00,WeatherDisplay:10.37,2013-09-07 18:07:00,
2013-09-07 11:12:00,91.9,39.3,29.75,SE,144,8.1,8.1,16,0.00,CLR,,0.00,WeatherDisplay:10.37,2013-09-07 18:12:00,
2013-09-07 11:17:00,92.1,39.5,29.75,East,92,6.9,6.9,16,0.00,CLR,,0.00,WeatherDisplay:10.37,2013-09-07 18:17:00,
2013-09-07 11:22:00,92.3,39.6,29.75,SSE,147,9.2,9.2,16,0.00,CLR,,0.00,WeatherDisplay:10.37,2013-09-07 18:22:00,
2013-09-07 11:27:00,93.5,40.6,29.74,SE,146,11.5,11.5,16,0.00,CLR,,0.00,WeatherDisplay:10.37,2013-09-07 18:27:00,
2013-09-07 11:32:00,93.2,40.3,29.75,SSE,154,7.0,7.0,16,0.00,CLR,,0.00,WeatherDisplay:10.37,2013-09-07 18:32:00,
2013-09-07 11:37:00,93.5,40.6,29.75,ESE,117,11.0,11.0,16,0.00,CLR,,0.00,WeatherDisplay:10.37,2013-09-07 18:37:00,
2013-09-07 11:42:00,94.1,39.4,29.74,ESE,115,8.1,8.1,15,0.00,CLR,,0.00,WeatherDisplay:10.37,2013-09-07 18:42:00,
2013-09-07 11:47:00,94.4,39.6,29.74,ENE,60,9.2,9.2,15,0.00,CLR,,0.00,WeatherDisplay:10.37,2013-09-07 18:47:00,
2013-09-07 11:52:00,95.2,40.3,29.74,SSE,157,3.5,3.5,15,0.00,CLR,,0.00,WeatherDisplay:10.37,2013-09-07 18:52:00,
2013-09-07 11:57:00,94.9,38.3,29.74,ESE,108,3.5,3.5,14,0.00,CLR,,0.00,WeatherDisplay:10.37,2013-09-07 18:57:00,
2013-09-07 12:02:00,95.2,38.5,29.73,ESE,121,10.4,10.4,14,0.00,CLR,,0.00,WeatherDisplay:10.37,2013-09-07 19:02:00,
2013-09-07 12:07:00,95.1,38.4,29.73,ENE,70,9.2,9.2,14,0.00,CLR,,0.00,WeatherDisplay:10.37,2013-09-07 19:07:00,
2013-09-07 12:12:00,95.5,40.5,29.73,SE,128,4.0,4.0,15,0.00,CLR,,0.00,WeatherDisplay:10.37,2013-09-07 19:12:00,
2013-09-07 12:17:00,95.0,38.3,29.73,ENE,76,10.4,10.4,14,0.00,CLR,,0.00,WeatherDisplay:10.37,2013-09-07 19:17:00,
2013-09-07 12:22:00,95.0,38.3,29.73,East,85,6.9,6.9,14,0.00,CLR,,0.00,WeatherDisplay:10.37,2013-09-07 19:22:00,
2013-09-07 12:27:00,95.7,38.9,29.72,East,95,3.5,3.5,14,0.00,CLR,,0.00,WeatherDisplay:10.37,2013-09-07 19:27:00,
2013-09-07 12:32:00,95.5,38.7,29.72,SE,146,15.0,15.0,14,0.00,CLR,,0.00,WeatherDisplay:10.37,2013-09-07 19:32:00,
2013-09-07 12:33:00,95.5,38.7,29.72,SSE,148,22.0,22.0,14,0.00,CLR,,0.00,WeatherDisplay:10.37,2013-09-07 19:33:00,
2013-09-07 12:38:00,94.6,39.8,29.72,WSW,250,6.9,6.9,15,0.00,CLR,,0.00,WeatherDisplay:10.37,2013-09-07 19:38:00,
2013-09-07 12:43:00,95.6,40.6,29.72,SW,234,5.8,5.8,15,0.00,CLR,,0.00,WeatherDisplay:10.37,2013-09-07 19:43:00,
2013-09-07 12:48:00,96.7,39.7,29.71,NNE,27,17.3,17.3,14,0.00,CLR,,0.00,WeatherDisplay:10.37,2013-09-07 19:48:00,
2013-09-07 12:53:00,96.7,39.7,29.71,SE,144,12.7,12.7,14,0.00,CLR,,0.00,WeatherDisplay:10.37,2013-09-07 19:53:00,
2013-09-07 12:58:00,96.1,39.2,29.71,ESE,116,14.0,14.0,14,0.00,CLR,,0.00,WeatherDisplay:10.37,2013-09-07 19:58:00,
2013-09-07 13:03:00,95.5,40.5,29.71,ESE,102,12.7,12.7,15,0.00,CLR,,0.00,WeatherDisplay:10.37,2013-09-07 20:03:00,
2013-09-07 13:08:00,95.9,39.0,29.70,ENE,71,3.5,3.5,14,0.00,CLR,,0.00,WeatherDisplay:10.37,2013-09-07 20:08:00,
2013-09-07 13:13:00,97.2,40.1,29.69,East,98,17.0,17.0,14,0.00,CLR,,0.00,WeatherDisplay:10.37,2013-09-07 20:13:00,
2013-09-07 13:18:00,96.9,37.9,29.70,East,83,17.3,17.3,13,0.00,CLR,,0.00,WeatherDisplay:10.37,2013-09-07 20:18:00,
2013-09-07 13:23:00,96.7,37.8,29.70,SSE,159,15.0,15.0,13,0.00,CLR,,0.00,WeatherDisplay:10.37,2013-09-07 20:23:00,
2013-09-07 13:28:00,97.0,38.0,29.70,SSE,167,16.1,16.1,13,0.00,CLR,,0.00,WeatherDisplay:10.37,2013-09-07 20:28:00,
2013-09-07 13:33:00,96.7,39.7,29.70,West,269,8.0,8.0,14,0.00,CLR,,0.00,WeatherDisplay:10.37,2013-09-07 20:33:00,
2013-09-07 13:38:00,97.1,38.1,29.69,ESE,112,3.5,3.5,13,0.00,CLR,,0.00,WeatherDisplay:10.37,2013-09-07 20:38:00,
2013-09-07 13:43:00,97.2,40.1,29.69,SSE,152,9.2,9.2,14,0.00,CLR,,0.00,WeatherDisplay:10.37,2013-09-07 20:43:00,
2013-09-07 13:48:00,97.3,40.1,29.69,NE,44,8.1,8.1,14,0.00,CLR,,0.00,WeatherDisplay:10.37,2013-09-07 20:48:00,
2013-09-07 13:53:00,97.6,40.4,29.68,NE,42,10.4,10.4,14,0.00,CLR,,0.00,WeatherDisplay:10.37,2013-09-07 20:53:00,
2013-09-07 13:58:00,97.6,40.4,29.68,South,181,18.0,18.0,14,0.00,CLR,,0.00,WeatherDisplay:10.37,2013-09-07 20:58:00,
2013-09-07 14:03:00,96.8,39.7,29.68,ESE,120,10.4,10.4,14,0.00,CLR,,0.00,WeatherDisplay:10.37,2013-09-07 21:03:00,
2013-09-07 14:08:00,96.7,41.4,29.68,East,98,9.2,9.2,15,0.00,CLR,,0.00,WeatherDisplay:10.37,2013-09-07 21:08:00,
2013-09-07 14:13:00,96.7,41.4,29.67,East,93,15.0,15.0,15,0.00,CLR,,0.00,WeatherDisplay:10.37,2013-09-07 21:13:00,
2013-09-07 14:18:00,96.3,41.1,29.67,NE,53,10.4,10.4,15,0.00,CLR,,0.00,WeatherDisplay:10.37,2013-09-07 21:18:00,
2013-09-07 14:23:00,97.2,41.8,29.67,NE,46,8.1,8.1,15,0.00,CLR,,0.00,WeatherDisplay:10.37,2013-09-07 21:23:00,
2013-09-07 14:28:00,97.7,42.2,29.67,ESE,116,9.2,9.2,15,0.00,CLR,,0.00,WeatherDisplay:10.37,2013-09-07 21:28:00,
2013-09-07 14:33:00,97.6,42.2,29.66,ESE,107,6.9,6.9,15,0.00,CLR,,0.00,WeatherDisplay:10.37,2013-09-07 21:33:00,
2013-09-07 14:38:00,97.6,42.2,29.66,South,175,13.0,13.0,15,0.00,CLR,,0.00,WeatherDisplay:10.37,2013-09-07 21:38:00,
2013-09-07 14:43:00,97.4,42.0,29.66,SSE,162,15.0,15.0,15,0.00,CLR,,0.00,WeatherDisplay:10.37,2013-09-07 21:43:00,
2013-09-07 14:48:00,97.4,42.0,29.66,ENE,57,8.1,8.1,15,0.00,CLR,,0.00,WeatherDisplay:10.37,2013-09-07 21:48:00,
2013-09-07 14:53:00,97.7,42.2,29.66,ESE,104,13.0,13.0,15,0.00,CLR,,0.00,WeatherDisplay:10.37,2013-09-07 21:53:00,
2013-09-07 14:58:00,97.9,42.4,29.65,SE,144,13.0,13.0,15,0.00,CLR,,0.00,WeatherDisplay:10.37,2013-09-07 21:58:00,
2013-09-07 15:03:00,97.9,40.6,29.64,SE,134,24.2,24.2,14,0.00,CLR,,0.00,WeatherDisplay:10.37,2013-09-07 22:03:00,
2013-09-07 15:08:00,97.2,41.8,29.64,SE,136,15.0,15.0,15,0.00,CLR,,0.00,WeatherDisplay:10.37,2013-09-07 22:08:00,
2013-09-07 15:13:00,97.3,41.9,29.64,ENE,78,17.3,17.3,15,0.00,CLR,,0.00,WeatherDisplay:10.37,2013-09-07 22:13:00,
2013-09-07 15:18:00,97.3,41.9,29.64,SSE,148,13.8,13.8,15,0.00,CLR,,0.00,WeatherDisplay:10.37,2013-09-07 22:18:00,
2013-09-07 15:23:00,97.0,41.7,29.64,East,88,24.2,24.2,15,0.00,CLR,,0.00,WeatherDisplay:10.37,2013-09-07 22:23:00,
2013-09-07 15:28:00,97.4,43.7,29.64,ESE,110,16.1,16.1,16,0.00,CLR,,0.00,WeatherDisplay:10.37,2013-09-07 22:28:00,
2013-09-07 15:33:00,97.6,43.8,29.64,NE,42,11.5,11.5,16,0.00,CLR,,0.00,WeatherDisplay:10.37,2013-09-07 22:33:00,
2013-09-07 15:38:00,98.0,44.2,29.64,SE,137,13.8,13.8,16,0.00,CLR,,0.00,WeatherDisplay:10.37,2013-09-07 22:38:00,
2013-09-07 15:43:00,97.8,44.0,29.64,SE,126,20.7,20.7,16,0.00,CLR,,0.00,WeatherDisplay:10.37,2013-09-07 22:43:00,
2013-09-07 15:48:00,98.1,44.2,29.64,SE,139,25.3,25.3,16,0.00,CLR,,0.00,WeatherDisplay:10.37,2013-09-07 22:48:00,
2013-09-07 15:53:00,97.8,44.0,29.63,South,173,19.6,19.6,16,0.00,CLR,,0.00,WeatherDisplay:10.37,2013-09-07 22:53:00,
2013-09-07 15:58:00,98.7,41.2,29.63,SSE,164,15.0,15.0,14,0.00,CLR,,0.00,WeatherDisplay:10.37,2013-09-07 22:58:00,
2013-09-07 16:03:00,99.0,41.5,29.62,SSE,147,23.0,23.0,14,0.00,CLR,,0.00,WeatherDisplay:10.37,2013-09-07 23:03:00,
2013-09-07 16:08:00,98.5,34.9,29.63,South,191,24.2,24.2,11,0.00,CLR,,0.00,WeatherDisplay:10.37,2013-09-07 23:08:00,
2013-09-07 16:13:00,98.4,39.1,29.62,WNW,287,19.6,19.6,13,0.00,CLR,,0.00,WeatherDisplay:10.37,2013-09-07 23:13:00,
2013-09-07 16:18:00,99.2,35.5,29.63,West,275,18.4,18.4,11,0.00,CLR,,0.00,WeatherDisplay:10.37,2013-09-07 23:18:00,
2013-09-07 16:23:00,99.1,37.6,29.62,WNW,299,26.5,26.5,12,0.00,CLR,,0.00,WeatherDisplay:10.37,2013-09-07 23:23:00,
2013-09-07 16:28:00,98.7,35.1,29.63,WNW,296,16.0,16.0,11,0.00,CLR,,0.00,WeatherDisplay:10.37,2013-09-07 23:28:00,
2013-09-07 16:33:00,99.0,35.3,29.63,WNW,303,17.3,17.3,11,0.00,CLR,,0.00,WeatherDisplay:10.37,2013-09-07 23:33:00,
2013-09-07 16:38:00,98.5,34.9,29.63,WNW,292,10.4,10.4,11,0.00,CLR,,0.00,WeatherDisplay:10.37,2013-09-07 23:38:00,
2013-09-07 16:43:00,98.8,35.2,29.63,WNW,293,11.5,11.5,11,0.00,CLR,,0.00,WeatherDisplay:10.37,2013-09-07 23:43:00,
2013-09-07 16:48:00,98.7,35.1,29.63,NW,304,17.3,17.3,11,0.00,CLR,,0.00,WeatherDisplay:10.37,2013-09-07 23:48:00,
2013-09-07 16:53:00,98.3,34.8,29.63,NW,310,13.8,13.8,11,0.00,CLR,,0.00,WeatherDisplay:10.37,2013-09-07 23:53:00,
2013-09-07 16:58:00,98.2,34.7,29.63,NW,304,16.1,16.1,11,0.00,CLR,,0.00,WeatherDisplay:10.37,2013-09-07 23:58:00,
2013-09-07 17:03:00,98.3,34.8,29.63,WNW,290,18.4,18.4,11,0.00,CLR,,0.00,WeatherDisplay:10.37,2013-09-08 00:03:00,
2013-09-07 17:08:00,98.2,34.7,29.63,NW,304,13.8,13.8,11,0.00,CLR,,0.00,WeatherDisplay:10.37,2013-09-08 00:08:00,
2013-09-07 17:13:00,97.7,34.3,29.63,NW,309,19.6,19.6,11,0.00,CLR,,0.00,WeatherDisplay:10.37,2013-09-08 00:13:00,
2013-09-07 17:18:00,97.3,34.0,29.63,WNW,288,12.7,12.7,11,0.00,CLR,,0.00,WeatherDisplay:10.37,2013-09-08 00:18:00,
2013-09-07 17:23:00,97.3,36.2,29.63,West,268,12.0,12.0,12,0.00,CLR,,0.00,WeatherDisplay:10.37,2013-09-08 00:23:00,
2013-09-07 17:28:00,97.2,36.1,29.63,West,274,12.7,12.7,12,0.00,CLR,,0.00,WeatherDisplay:10.37,2013-09-08 00:28:00,
2013-09-07 17:33:00,96.9,35.9,29.63,West,271,17.0,17.0,12,0.00,CLR,,0.00,WeatherDisplay:10.37,2013-09-08 00:33:00,
2013-09-07 17:38:00,97.0,36.0,29.63,WNW,292,13.0,13.0,12,0.00,CLR,,0.00,WeatherDisplay:10.37,2013-09-08 00:38:00,
2013-09-07 17:43:00,96.8,35.8,29.63,West,272,15.0,15.0,12,0.00,CLR,,0.00,WeatherDisplay:10.37,2013-09-08 00:43:00,
2013-09-07 17:48:00,96.8,35.8,29.63,West,273,16.1,16.1,12,0.00,CLR,,0.00,WeatherDisplay:10.37,2013-09-08 00:48:00,
2013-09-07 17:53:00,96.7,35.7,29.63,WSW,252,15.0,15.0,12,0.00,CLR,,0.00,WeatherDisplay:10.37,2013-09-08 00:53:00,
2013-09-07 17:58:00,96.2,35.4,29.63,WSW,249,17.3,17.3,12,0.00,CLR,,0.00,WeatherDisplay:10.37,2013-09-08 00:58:00,
2013-09-07 18:03:00,95.6,34.9,29.63,WSW,248,17.3,17.3,12,0.00,OVC,,0.00,WeatherDisplay:10.37,2013-09-08 01:03:00,
2013-09-07 18:08:00,95.1,34.5,29.63,WSW,244,21.9,21.9,12,0.00,OVC,,0.00,WeatherDisplay:10.37,2013-09-08 01:08:00,
2013-09-07 18:13:00,95.0,36.4,29.63,WSW,240,20.7,20.7,13,0.00,OVC,,0.00,WeatherDisplay:10.37,2013-09-08 01:13:00,
2013-09-07 18:18:00,94.8,36.3,29.63,WSW,251,19.6,19.6,13,0.00,OVC,,0.00,WeatherDisplay:10.37,2013-09-08 01:18:00,
2013-09-07 18:23:00,94.6,36.1,29.63,WSW,258,17.0,17.0,13,0.00,OVC,,0.00,WeatherDisplay:10.37,2013-09-08 01:23:00,
2013-09-07 18:28:00,94.3,35.9,29.63,WSW,250,16.1,16.1,13,0.00,OVC,,0.00,WeatherDisplay:10.37,2013-09-08 01:28:00,
2013-09-07 18:33:00,93.9,35.6,29.64,WSW,250,19.6,19.6,13,0.00,OVC,,0.00,WeatherDisplay:10.37,2013-09-08 01:33:00,
2013-09-07 18:38:00,93.5,37.2,29.64,WSW,250,19.6,19.6,14,0.00,OVC,,0.00,WeatherDisplay:10.37,2013-09-08 01:38:00,
2013-09-07 18:43:00,93.1,36.8,29.64,WSW,252,18.4,18.4,14,0.00,OVC,,0.00,WeatherDisplay:10.37,2013-09-08 01:43:00,
2013-09-07 18:48:00,92.8,36.6,29.64,SW,223,15.0,15.0,14,0.00,OVC,,0.00,WeatherDisplay:10.37,2013-09-08 01:48:00,
2013-09-07 18:53:00,92.3,38.0,29.64,WSW,246,15.0,15.0,15,0.00,OVC,,0.00,WeatherDisplay:10.37,2013-09-08 01:53:00,
2013-09-07 18:58:00,91.9,37.6,29.64,WSW,245,15.0,15.0,15,0.00,OVC,,0.00,WeatherDisplay:10.37,2013-09-08 01:58:00,
2013-09-07 19:03:00,91.4,37.2,29.64,SW,233,12.7,12.7,15,0.00,CLR,,0.00,WeatherDisplay:10.37,2013-09-08 02:03:00,
2013-09-07 19:08:00,90.7,38.3,29.64,SW,223,11.5,11.5,16,0.00,CLR,,0.00,WeatherDisplay:10.37,2013-09-08 02:08:00,
2013-09-07 19:13:00,90.6,38.3,29.65,WSW,247,13.8,13.8,16,0.00,CLR,,0.00,WeatherDisplay:10.37,2013-09-08 02:13:00,
2013-09-07 19:18:00,90.1,37.9,29.65,WSW,243,11.0,11.0,16,0.00,CLR,,0.00,WeatherDisplay:10.37,2013-09-08 02:18:00,
2013-09-07 19:23:00,90.1,39.4,29.65,WSW,251,11.5,11.5,17,0.00,CLR,,0.00,WeatherDisplay:10.37,2013-09-08 02:23:00,
2013-09-07 19:28:00,89.7,39.1,29.65,SW,234,9.2,9.2,17,0.00,CLR,,0.00,WeatherDisplay:10.37,2013-09-08 02:28:00,
2013-09-07 19:33:00,88.6,38.2,29.66,SW,219,5.8,5.8,17,0.00,CLR,,0.00,WeatherDisplay:10.37,2013-09-08 02:33:00,
2013-09-07 19:38:00,88.1,39.3,29.66,WSW,244,6.9,6.9,18,0.00,CLR,,0.00,WeatherDisplay:10.37,2013-09-08 02:38:00,
2013-09-07 19:43:00,88.2,39.3,29.66,WSW,244,1.1,0.0,18,0.00,CLR,,0.00,WeatherDisplay:10.37,2013-09-08 02:43:00,
2013-09-07 19:48:00,86.7,38.1,29.66,SE,142,8.1,8.1,18,0.00,CLR,,0.00,WeatherDisplay:10.37,2013-09-08 02:48:00,
2013-09-07 19:53:00,86.6,39.4,29.66,South,182,11.5,11.5,19,0.00,CLR,,0.00,WeatherDisplay:10.37,2013-09-08 02:53:00,
2013-09-07 19:58:00,86.8,39.6,29.67,South,180,15.0,15.0,19,0.00,CLR,,0.00,WeatherDisplay:10.37,2013-09-08 02:58:00,
2013-09-07 20:03:00,87.0,39.7,29.67,South,185,9.2,9.2,19,0.00,CLR,,0.00,WeatherDisplay:10.37,2013-09-08 03:03:00,
2013-09-07 20:08:00,87.7,40.3,29.67,South,185,16.1,16.1,19,0.00,CLR,,0.00,WeatherDisplay:10.37,2013-09-08 03:08:00,
2013-09-07 20:13:00,87.4,40.1,29.67,SSW,194,11.5,11.5,19,0.00,CLR,,0.00,WeatherDisplay:10.37,2013-09-08 03:13:00,
2013-09-07 20:18:00,86.8,40.9,29.67,South,184,16.1,16.1,20,0.00,CLR,,0.00,WeatherDisplay:10.37,2013-09-08 03:18:00,
2013-09-07 20:23:00,86.9,41.0,29.67,South,184,12.7,12.7,20,0.00,CLR,,0.00,WeatherDisplay:10.37,2013-09-08 03:23:00,
2013-09-07 20:28:00,87.1,41.2,29.67,South,175,10.0,10.0,20,0.00,CLR,,0.00,WeatherDisplay:10.37,2013-09-08 03:28:00,
2013-09-07 20:33:00,86.3,40.5,29.68,SSE,149,11.5,11.5,20,0.00,CLR,,0.00,WeatherDisplay:10.37,2013-09-08 03:33:00,
2013-09-07 20:38:00,84.6,40.4,29.68,SE,133,9.2,9.2,21,0.00,CLR,,0.00,WeatherDisplay:10.37,2013-09-08 03:38:00,
2013-09-07 20:43:00,83.1,39.1,29.68,SSE,150,11.5,11.5,21,0.00,CLR,,0.00,WeatherDisplay:10.37,2013-09-08 03:43:00,
2013-09-07 20:48:00,82.2,39.6,29.68,SSE,148,11.5,11.5,22,0.00,CLR,,0.00,WeatherDisplay:10.37,2013-09-08 03:48:00,
2013-09-07 20:53:00,81.7,40.3,29.68,SSE,156,11.5,11.5,23,0.00,CLR,,0.00,WeatherDisplay:10.37,2013-09-08 03:53:00,
2013-09-07 20:58:00,81.8,40.4,29.69,SSE,153,11.5,11.7,23,0.00,CLR,,0.00,WeatherDisplay:10.37,2013-09-08 03:58:00,
2013-09-07 21:01:00,82.0,39.4,29.69,SSE,147,11.5,11.5,22,0.00,CLR,,0.00,WeatherDisplay:10.37,2013-09-08 04:01:00,
2013-09-07 21:02:00,81.9,39.3,29.69,SE,145,10.4,10.4,22,0.00,OVC,,0.00,WeatherDisplay:10.37,2013-09-08 04:02:00,
2013-09-07 21:07:00,81.0,39.7,29.69,SSE,154,10.0,10.0,23,0.00,OVC,,0.00,WeatherDisplay:10.37,2013-09-08 04:07:00,
2013-09-07 21:12:00,80.7,39.4,29.69,SSE,152,11.5,11.5,23,0.00,OVC,,0.00,WeatherDisplay:10.37,2013-09-08 04:12:00,
2013-09-07 21:17:00,80.3,40.2,29.69,South,175,11.5,11.5,24,0.00,OVC,,0.00,WeatherDisplay:10.37,2013-09-08 04:17:00,
2013-09-07 21:22:00,80.5,40.4,29.69,South,175,11.5,11.5,24,0.00,OVC,,0.00,WeatherDisplay:10.37,2013-09-08 04:22:00,
2013-09-07 21:27:00,80.6,40.5,29.69,SSE,161,9.2,9.2,24,0.00,OVC,,0.00,WeatherDisplay:10.37,2013-09-08 04:27:00,
2013-09-07 21:32:00,80.7,40.5,29.69,South,179,14.0,14.0,24,0.00,OVC,,0.00,WeatherDisplay:10.37,2013-09-08 04:32:00,
2013-09-07 21:37:00,81.7,40.3,29.70,South,173,19.6,19.6,23,0.00,OVC,,0.00,WeatherDisplay:10.37,2013-09-08 04:37:00,
2013-09-07 21:42:00,81.7,39.1,29.70,South,173,19.6,19.6,22,0.00,OVC,,0.00,WeatherDisplay:10.37,2013-09-08 04:42:00,
2013-09-07 21:47:00,81.5,40.1,29.70,SSE,162,17.3,17.3,23,0.00,OVC,,0.00,WeatherDisplay:10.37,2013-09-08 04:47:00,
2013-09-07 21:52:00,80.4,40.3,29.70,South,170,16.0,16.0,24,0.00,OVC,,0.00,WeatherDisplay:10.37,2013-09-08 04:52:00,
2013-09-07 21:57:00,80.3,40.2,29.70,South,170,13.8,13.8,24,0.00,OVC,,0.00,WeatherDisplay:10.37,2013-09-08 04:57:00,
2013-09-07 22:02:00,80.5,40.4,29.70,South,172,16.1,16.1,24,0.00,CLR,,0.00,WeatherDisplay:10.37,2013-09-08 05:02:00,
2013-09-07 22:07:00,80.6,40.5,29.70,South,180,13.0,13.0,24,0.00,CLR,,0.00,WeatherDisplay:10.37,2013-09-08 05:07:00,
2013-09-07 22:12:00,81.4,40.0,29.70,SSE,156,11.5,11.5,23,0.00,CLR,,0.00,WeatherDisplay:10.37,2013-09-08 05:12:00,
2013-09-07 22:17:00,80.9,39.6,29.70,South,188,17.3,17.3,23,0.00,CLR,,0.00,WeatherDisplay:10.37,2013-09-08 05:17:00,
2013-09-07 22:22:00,81.4,40.0,29.70,SSE,161,11.5,11.5,23,0.00,CLR,,0.00,WeatherDisplay:10.37,2013-09-08 05:22:00,
2013-09-07 22:27:00,81.1,39.8,29.70,South,180,16.1,16.1,23,0.00,CLR,,0.00,WeatherDisplay:10.37,2013-09-08 05:27:00,
2013-09-07 22:32:00,81.1,39.8,29.70,South,184,15.0,15.0,23,0.00,CLR,,0.00,WeatherDisplay:10.37,2013-09-08 05:32:00,
2013-09-07 22:37:00,81.2,39.9,29.70,South,186,15.0,15.0,23,0.00,CLR,,0.00,WeatherDisplay:10.37,2013-09-08 05:37:00,
2013-09-07 22:42:00,81.4,40.0,29.70,South,183,12.7,12.7,23,0.00,CLR,,0.00,WeatherDisplay:10.37,2013-09-08 05:42:00,
2013-09-07 22:47:00,81.1,39.8,29.70,South,188,15.0,15.0,23,0.00,CLR,,0.00,WeatherDisplay:10.37,2013-09-08 05:47:00,
2013-09-07 22:52:00,81.2,39.9,29.70,South,184,11.5,11.5,23,0.00,CLR,,0.00,WeatherDisplay:10.37,2013-09-08 05:52:00,
2013-09-07 22:57:00,80.6,39.4,29.70,SSW,200,8.1,8.1,23,0.00,CLR,,0.00,WeatherDisplay:10.37,2013-09-08 05:57:00,
2013-09-07 23:02:00,80.4,40.3,29.70,SSW,194,6.9,6.9,24,0.00,OVC,,0.00,WeatherDisplay:10.37,2013-09-08 06:02:00,
2013-09-07 23:07:00,80.0,40.0,29.70,WSW,240,3.5,3.5,24,0.00,OVC,,0.00,WeatherDisplay:10.37,2013-09-08 06:07:00,
2013-09-07 23:12:00,79.8,39.8,29.70,WSW,239,2.3,0.0,24,0.00,OVC,,0.00,WeatherDisplay:10.37,2013-09-08 06:12:00,
2013-09-07 23:17:00,79.6,40.7,29.70,SSE,165,9.2,9.2,25,0.00,OVC,,0.00,WeatherDisplay:10.37,2013-09-08 06:17:00,
2013-09-07 23:22:00,79.3,41.4,29.70,WSW,240,3.5,3.5,26,0.00,OVC,,0.00,WeatherDisplay:10.37,2013-09-08 06:22:00,
2013-09-07 23:27:00,78.5,40.7,29.70,West,265,3.5,3.5,26,0.00,OVC,,0.00,WeatherDisplay:10.37,2013-09-08 06:27:00,
2013-09-07 23:32:00,77.7,40.1,29.70,SSW,209,5.0,5.0,26,0.00,OVC,,0.00,WeatherDisplay:10.37,2013-09-08 06:32:00,
2013-09-07 23:37:00,76.7,40.2,29.70,SSW,205,4.6,4.9,27,0.00,OVC,,0.00,WeatherDisplay:10.37,2013-09-08 06:37:00,
2013-09-07 23:42:00,76.2,39.8,29.70,SSW,206,5.8,5.8,27,0.00,OVC,,0.00,WeatherDisplay:10.37,2013-09-08 06:42:00,
2013-09-07 23:47:00,74.9,39.6,29.70,SW,223,5.8,5.8,28,0.00,OVC,,0.00,WeatherDisplay:10.37,2013-09-08 06:47:00,
2013-09-07 23:52:00,74.2,39.0,29.69,SW,221,4.6,4.6,28,0.00,OVC,,0.00,WeatherDisplay:10.37,2013-09-08 06:52:00,
2013-09-07 23:57:00,74.4,40.1,29.70,SW,229,4.6,4.6,29,0.00,OVC,,0.00,WeatherDisplay:10.37,2013-09-08 06:57:00,